Погода в Исянове

Россия / Республика Башкортостан     52°48′58″N   58°14′53″E
темп.,
°C
ветер,
м/с
пор.,
м/с
влажн.,
%
обл.,
%
осадки,
мм/ч
давл.,
гПа
погр.,
м
18 апреля, вс
вс1823:00+10ююв11655 0.0 101910
02:00+9сз11610 0.0 101710
05:00+7ссз22665 0.0 101710
08:00+8ссв22685 0.0 101759
11:00+13ссв22553 0.0 1015513
14:00+16сз34362 0.0 10141947
17:00+15св534269 0.0 10141639
20:00+10всв81250100 0.0 1017620
19 апреля, пн
пн1923:00+3всв10146911 0.0 1022732
02:000всв10146534 0.0 1024778
05:00−2в91480100 0.0 1027721
08:00−3всв91349100 0.0 1028809
11:00−1в101137100 0.0 1029934
14:00+1в9103141 0.0 10281190
17:00+2в8103110 0.0 10281325
20:00−1в8113839 0.0 1030867
20 апреля, вт
вт2023:00−3в711457 0.0 1032980
02:00−4в610490 0.0 1033958
05:00−5в611510 0.0 1034829
08:00−4в710430 0.0 1035829
11:000в78320 0.0 10351044
14:00+2в56300 0.0 10331204
17:00+3всв44305 0.0 10321145
20:000всв22420 0.0 103211
21 апреля, ср
ср2123:00−1ююз11440 0.0 103310
02:00−1зсз11450 0.0 103310
05:00−1ссз11430 0.0 103310
08:00+1зсз10360 0.0 1034153
11:00+6в12310 0.0 1033792
14:00+8вюв32327 0.0 10321143
17:00+9вюв333310 0.0 10321160
20:00+6ю234716 0.0 103321
22 апреля, чт
чт2223:00+3ю225298 0.0 103410
02:00+2ю22575 0.0 103512
05:00+1ю226375 0.0 103615
08:00+4ююв2456100 0.0 1036164
11:00+7ююв5644100 0.0 1036836
14:00+9ю5742100 0.0 10351203
17:00+9ю564393 0.0 10351207
20:00+7ююв3659100 0.0 1035105